Wind_Speed
11 10 10 9 8 8 8 9 8 6 5 6 6 7 10 14 17 19 19 20 20 19 19 18 18 18 17 16 15 15 14 14 14 16 18 21 21 21 20 18 16 14 12
13 12 12 11 11 12 13 13 13 11 9 8 9 10 11 15 18 21 23 24 24 23 23 23 23 22 21 21 20 19 18 17 16 17 17 19 21 22 21 20 18 15 13
15 14 14 13 14 15 17 17 17 16 14 13 13 12 13 15 18 21 24 26 27 27 28 28 27 27 26 25 24 24 22 21 19 18 19 18 20 22 23 22 20 18 16
18 17 17 17 18 19 20 19 19 18 18 18 17 16 16 17 19 22 24 27 29 30 30 30 30 29 29 27 26 25 25 24 23 21 21 21 19 21 24 25 23 20 18
20 19 19 20 21 21 21 20 19 19 20 21 21 20 19 20 22 24 26 27 30 31 31 30 30 29 28 27 25 24 24 24 24 23 22 22 21 21 22 26 25 21 19
24 22 21 22 22 22 22 21 20 21 22 23 23 23 22 23 25 25 26 27 28 29 30 30 29 28 27 27 26 23 22 23 24 24 24 23 22 21 20 23 24 21 19
26 24 22 22 23 23 22 22 22 23 24 24 24 24 25 26 26 26 25 26 26 27 28 28 28 28 27 27 27 26 23 22 22 24 25 25 24 22 21 20 19 18 17
29 25 24 23 22 22 22 22 23 24 23 23 24 26 26 27 27 26 25 25 26 26 27 27 27 27 27 27 27 27 25 23 22 22 24 24 25 24 23 22 21 19 18
31 27 25 23 22 22 23 24 24 24 23 23 24 25 26 27 27 25 25 25 25 25 26 26 26 27 27 27 27 26 26 25 24 23 22 23 25 25 24 24 23 21 20
32 29 26 24 23 23 24 25 24 24 24 25 25 25 26 27 27 27 25 24 24 25 26 27 28 27 27 27 27 26 26 27 27 26 24 24 25 26 26 25 24 23 22
33 30 26 24 24 24 25 25 25 24 25 26 26 26 25 26 26 26 25 24 23 23 24 25 28 28 26 26 26 26 27 28 29 28 27 26 26 27 28 27 26 26 25
33 30 26 24 24 24 25 25 25 25 26 26 27 26 25 25 25 24 23 23 23 22 21 21 23 24 25 25 26 26 27 29 29 29 28 28 28 28 28 28 28 28 27
33 30 26 24 24 24 24 24 25 25 25 26 26 26 25 24 24 24 23 24 23 22 20 20 21 23 24 24 25 26 26 27 29 29 29 29 29 28 28 28 28 28 28
31 26 23 23 24 24 24 25 26 26 25 25 24 24 24 24 24 23 23 23 23 21 20 20 22 23 24 24 24 27 28 28 28 29 29 30 29 28 27 28 28 28 27
26 21 20 22 25 25 26 26 26 26 25 24 24 23 23 23 23 22 21 21 22 22 21 20 21 23 24 23 23 26 28 29 30 30 31 31 32 30 28 27 27 26 26
21 19 21 24 26 26 26 26 25 25 25 24 23 22 22 22 22 20 19 18 20 22 23 23 23 24 24 23 22 24 26 28 29 29 30 31 32 32 30 28 26 26 25
16 19 22 24 25 25 25 24 23 23 23 24 23 21 21 21 21 19 18 18 19 21 23 25 25 26 25 24 22 23 23 23 24 24 25 27 29 30 30 28 27 26 25
13 17 20 22 22 23 23 22 22 22 22 23 23 22 21 21 21 19 18 18 19 20 22 24 26 27 26 25 24 23 21 20 20 20 20 22 25 28 29 28 28 28 27
12 15 17 19 21 20 21 21 22 22 23 24 24 23 22 21 21 20 19 19 20 20 21 22 24 26 27 28 27 25 23 22 22 21 21 21 22 25 27 29 29 30 30
13 16 19 20 20 20 20 21 22 23 24 25 26 24 23 23 23 22 21 20 20 21 20 20 22 25 26 28 29 29 28 27 26 26 25 25 24 24 25 27 29 30 30
15 17 19 19 20 20 19 19 20 22 24 26 26 26 25 25 25 24 23 22 21 21 21 21 22 23 25 27 29 30 30 30 30 30 30 29 28 27 27 27 28 29 30
15 17 19 20 21 21 20 20 20 21 22 25 27 27 27 26 26 26 25 24 23 22 22 22 22 22 23 25 27 27 28 29 30 31 32 32 32 31 31 30 29 30 30
17 19 20 21 22 23 22 22 21 21 21 22 25 26 27 28 27 27 26 26 26 25 25 25 25 24 23 24 24 25 26 26 28 30 32 33 33 34 34 34 33 32 33
21 22 23 23 23 23 23 21 20 20 21 21 21 22 23 25 27 28 27 27 27 27 27 26 26 27 26 27 27 27 27 27 28 29 31 32 33 35 36 37 36 36 36
20 21 22 23 23 22 21 21 20 20 21 21 21 22 21 21 21 23 25 26 26 27 27 27 26 26 27 27 27 27 27 27 28 29 29 30 32 34 36 37 39 39 39
20 21 21 22 22 21 21 21 21 22 22 22 22 22 22 22 21 22 23 24 24 24 25 25 25 25 25 25 26 27 28 28 29 29 30 30 30 31 33 35 39 41 42
Wind_Direction
266 263 260 266 280 293 296 286 279 289 296 284 272 264 253 245 241 242 242 241 238 239 240 241 241 242 245 249 252 255 255 251 244 241 239 230 225 226 227 227 229 233 234
260 257 256 263 274 282 285 282 274 280 292 297 283 269 263 258 252 247 246 246 245 243 243 245 246 248 249 251 253 254 255 255 251 247 247 240 228 226 228 229 229 234 238
254 253 256 263 271 276 279 281 278 281 293 302 300 284 269 266 264 259 255 252 250 250 249 249 250 252 253 253 253 254 253 251 251 250 249 248 239 231 229 229 230 235 239
251 254 259 266 270 273 275 280 280 283 292 297 299 291 277 273 272 270 266 261 257 254 253 252 252 254 255 253 252 252 250 246 245 247 247 248 247 240 233 229 232 236 237
253 257 263 268 270 272 275 279 280 283 290 295 296 289 280 276 275 275 273 270 265 261 257 255 254 253 252 249 247 248 247 244 242 245 246 247 248 247 242 232 231 232 233
255 259 265 268 271 273 274 277 280 284 290 293 291 287 282 280 279 278 276 274 270 265 262 259 255 251 248 244 243 246 247 245 243 244 246 245 244 245 247 234 227 228 231
255 257 261 266 269 272 275 279 282 286 290 291 288 287 285 284 284 282 277 273 270 266 262 259 256 252 246 243 243 246 247 247 245 245 245 244 241 239 240 235 230 231 234
254 256 259 262 267 271 277 281 284 288 290 290 288 287 285 285 285 284 280 274 270 266 262 257 254 252 247 244 244 247 246 244 245 246 244 242 239 236 234 233 232 234 237
251 255 259 262 267 272 277 283 287 290 291 289 286 283 283 285 286 284 281 277 271 266 262 258 254 250 248 245 244 247 245 241 242 246 245 242 238 236 235 234 234 237 240
251 253 258 262 267 273 279 285 288 289 288 286 283 280 280 283 284 283 279 278 274 267 264 260 255 248 247 247 245 246 244 239 239 243 245 243 238 236 236 236 237 240 242
254 255 256 261 269 275 280 284 285 285 284 282 280 278 278 279 280 279 276 275 275 273 267 259 251 245 244 246 245 244 244 240 238 240 243 243 240 238 237 238 241 243 244
254 253 255 261 268 273 277 279 280 282 281 279 279 278 277 277 278 276 273 271 271 273 269 257 246 240 242 244 243 242 242 241 239 239 241 241 241 241 240 240 243 245 246
252 251 253 260 266 270 272 273 276 278 278 278 277 275 274 274 274 273 269 265 264 267 265 256 246 241 241 243 242 240 241 241 241 241 241 240 240 241 242 243 244 247 248
250 248 253 260 266 268 270 272 273 272 272 273 273 272 271 271 272 272 267 260 257 258 258 255 248 242 241 242 241 241 242 242 244 244 242 240 241 242 243 244 245 247 248
242 247 257 264 269 272 273 273 272 269 265 265 267 269 268 269 270 270 266 258 251 249 251 251 248 245 242 241 240 241 242 244 245 246 245 242 241 242 244 245 245 246 247
236 246 260 266 269 270 270 270 270 268 262 258 260 263 266 266 267 265 262 257 250 249 248 247 247 246 241 239 239 240 241 243 244 245 246 244 242 242 244 245 245 243 242
241 252 260 264 265 265 265 265 266 266 261 256 255 258 261 261 260 260 259 257 254 252 250 248 246 244 238 236 238 241 243 242 242 244 246 246 243 242 244 245 244 241 240
250 256 260 263 265 265 265 264 263 263 259 255 253 254 255 256 255 255 256 257 258 256 253 249 244 242 237 231 234 240 243 244 243 246 249 249 247 245 246 247 247 245 244
257 263 267 269 269 269 268 266 262 259 257 254 251 251 251 252 252 252 254 256 259 258 254 250 245 241 236 232 233 237 242 246 249 251 253 253 252 250 250 251 252 251 249
276 277 275 274 275 276 277 273 267 260 258 254 251 251 251 251 249 248 250 253 256 255 253 252 247 242 239 236 237 239 244 249 253 255 257 256 255 254 254 254 254 254 254
286 283 279 278 278 280 281 279 273 265 261 258 255 253 252 252 251 248 248 251 253 253 253 254 251 249 245 242 242 245 248 251 254 256 256 256 257 256 255 255 255 255 254
291 286 283 280 280 282 282 281 277 271 266 262 259 255 253 252 252 251 250 251 252 254 254 253 252 254 251 247 247 251 252 253 255 255 255 256 258 258 257 254 253 254 255
290 287 286 285 284 284 283 281 278 274 270 267 263 260 257 252 250 251 251 252 253 253 254 253 253 256 257 255 254 256 257 257 258 258 258 256 257 259 259 257 254 253 254
292 289 287 286 285 284 283 280 277 272 270 269 267 265 264 260 253 249 249 250 251 253 253 254 254 255 256 259 261 261 262 262 263 264 262 260 259 259 260 259 257 255 255
294 292 289 287 286 285 284 282 279 275 273 271 271 271 270 268 261 254 250 249 249 250 251 252 254 256 258 260 263 265 266 265 265 265 266 264 262 261 260 258 258 257 256
297 294 291 289 286 285 285 284 282 279 277 275 274 271 269 266 264 260 254 250 249 248 249 250 251 254 257 260 261 262 265 266 267 267 268 266 265 264 263 261 259 257 256
Height
5901 5900 5900 5899 5899 5898 5898 5897 5896 5895 5894 5894 5892 5891 5890 5889 5889 5889 5890 5890 5891 5892 5892 5893 5894 5895 5896 5896 5897 5897 5898 5898 5898 5899 5900 5902 5903 5905 5907 5908 5909 5911 5911
5897 5896 5896 5896 5895 5895 5894 5894 5893 5892 5892 5891 5890 5889 5889 5888 5886 5885 5885 5886 5886 5887 5888 5889 5890 5891 5892 5893 5894 5894 5895 5896 5896 5896 5897 5898 5900 5902 5904 5906 5907 5908 5909
5893 5892 5892 5892 5892 5891 5890 5890 5890 5889 5889 5888 5888 5887 5886 5885 5884 5883 5881 5881 5881 5882 5882 5884 5885 5886 5887 5888 5889 5891 5892 5892 5892 5893 5894 5895 5897 5898 5900 5902 5904 5906 5907
5889 5888 5888 5888 5888 5887 5886 5886 5885 5885 5885 5884 5884 5883 5882 5881 5880 5879 5878 5876 5876 5876 5877 5878 5879 5880 5882 5883 5884 5886 5887 5888 5888 5889 5890 5891 5893 5894 5896 5899 5901 5903 5905
5884 5884 5884 5883 5883 5883 5883 5882 5882 5882 5881 5880 5879 5878 5877 5876 5876 5874 5873 5872 5871 5870 5871 5872 5873 5874 5876 5877 5879 5880 5882 5883 5884 5885 5886 5887 5889 5890 5892 5894 5897 5899 5901
5879 5878 5878 5878 5878 5878 5878 5878 5878 5878 5877 5876 5875 5874 5873 5871 5870 5869 5867 5866 5865 5864 5865 5866 5867 5868 5870 5872 5874 5876 5877 5878 5880 5881 5882 5883 5885 5887 5888 5890 5892 5894 5897
5873 5873 5873 5873 5873 5873 5873 5873 5872 5872 5871 5870 5869 5868 5867 5865 5864 5863 5862 5860 5859 5858 5858 5859 5861 5862 5864 5866 5868 5871 5873 5874 5875 5877 5878 5879 5881 5883 5885 5886 5888 5891 5893
5867 5867 5868 5868 5868 5867 5867 5867 5867 5865 5864 5864 5863 5862 5860 5859 5857 5856 5855 5854 5853 5852 5852 5853 5854 5856 5858 5861 5863 5865 5867 5869 5871 5872 5873 5875 5877 5879 5882 5884 5885 5887 5889
5860 5861 5862 5862 5862 5862 5862 5862 5861 5860 5859 5858 5857 5856 5854 5853 5851 5850 5849 5848 5847 5846 5846 5847 5848 5850 5853 5855 5857 5860 5862 5864 5866 5868 5869 5870 5872 5875 5878 5880 5882 5884 5885
5853 5855 5856 5856 5857 5857 5856 5856 5855 5855 5853 5852 5851 5849 5848 5847 5845 5844 5843 5842 5841 5840 5840 5841 5842 5844 5847 5849 5852 5854 5856 5858 5861 5863 5865 5866 5868 5870 5872 5875 5877 5879 5881
5847 5848 5849 5850 5851 5851 5851 5850 5850 5849 5848 5846 5844 5843 5842 5841 5839 5838 5837 5836 5835 5835 5834 5834 5836 5838 5841 5844 5846 5848 5850 5853 5856 5858 5860 5861 5863 5865 5867 5869 5871 5873 5875
5840 5841 5842 5843 5844 5845 5845 5844 5843 5842 5841 5840 5838 5837 5836 5835 5833 5832 5831 5830 5830 5830 5829 5829 5830 5832 5835 5838 5840 5843 5845 5848 5850 5852 5854 5856 5858 5860 5862 5864 5866 5868 5870
5832 5833 5835 5836 5837 5838 5838 5837 5836 5836 5835 5834 5832 5830 5829 5828 5827 5826 5825 5825 5825 5825 5824 5824 5825 5827 5829 5832 5835 5838 5841 5843 5846 5847 5849 5851 5852 5854 5856 5858 5860 5862 5863
5824 5825 5828 5829 5830 5830 5830 5829 5829 5828 5828 5827 5826 5824 5823 5822 5821 5820 5819 5819 5819 5819 5819 5819 5820 5822 5824 5826 5829 5832 5836 5838 5840 5842 5843 5845 5847 5849 5851 5852 5854 5856 5857
5815 5818 5820 5822 5823 5823 5822 5821 5821 5820 5820 5819 5819 5818 5817 5816 5815 5815 5814 5813 5814 5814 5815 5815 5816 5817 5819 5821 5823 5826 5830 5832 5834 5836 5837 5839 5841 5843 5845 5846 5848 5849 5851
5809 5812 5814 5815 5816 5815 5814 5813 5813 5812 5812 5812 5812 5811 5811 5811 5810 5809 5809 5808 5808 5809 5810 5810 5811 5812 5814 5816 5818 5821 5824 5826 5827 5829 5831 5833 5835 5837 5839 5840 5842 5843 5845
5804 5807 5809 5809 5809 5808 5806 5805 5805 5805 5804 5804 5804 5804 5804 5804 5804 5804 5804 5803 5803 5804 5805 5805 5806 5807 5809 5812 5814 5816 5818 5820 5822 5823 5825 5826 5828 5831 5833 5834 5836 5837 5839
5800 5802 5803 5802 5802 5801 5799 5798 5797 5797 5797 5797 5797 5797 5797 5798 5799 5799 5799 5798 5798 5799 5799 5800 5800 5802 5804 5807 5809 5812 5813 5815 5817 5818 5820 5821 5823 5825 5826 5828 5829 5831 5833
5796 5797 5797 5796 5795 5794 5792 5791 5790 5790 5790 5789 5790 5790 5790 5791 5793 5793 5794 5794 5794 5794 5794 5795 5795 5797 5799 5802 5804 5807 5809 5811 5812 5814 5815 5817 5818 5819 5820 5822 5823 5824 5826
5791 5791 5791 5790 5789 5787 5786 5785 5784 5783 5783 5783 5783 5783 5783 5785 5786 5787 5788 5789 5789 5789 5789 5790 5790 5792 5794 5796 5799 5801 5803 5806 5808 5809 5811 5812 5813 5813 5814 5815 5817 5818 5819
5786 5785 5784 5783 5782 5781 5780 5778 5777 5777 5776 5776 5776 5776 5777 5778 5779 5780 5782 5783 5784 5784 5785 5786 5786 5787 5789 5791 5793 5795 5797 5800 5801 5803 5804 5806 5807 5808 5808 5809 5810 5811 5812
5781 5780 5779 5777 5776 5775 5774 5772 5772 5771 5770 5769 5769 5769 5770 5771 5772 5773 5775 5776 5778 5779 5780 5781 5782 5783 5784 5785 5787 5789 5791 5793 5794 5796 5797 5798 5800 5801 5802 5803 5804 5805 5805
5777 5775 5773 5771 5769 5768 5767 5766 5765 5765 5763 5763 5763 5762 5763 5763 5764 5766 5767 5769 5771 5773 5775 5776 5777 5778 5779 5780 5781 5783 5784 5786 5787 5788 5789 5790 5792 5793 5794 5795 5796 5797 5798
5770 5768 5766 5764 5763 5761 5760 5760 5759 5758 5758 5757 5756 5756 5756 5756 5757 5758 5760 5762 5764 5766 5768 5770 5772 5773 5774 5775 5776 5777 5778 5779 5780 5780 5781 5782 5783 5784 5785 5786 5788 5788 5789
5764 5762 5760 5758 5756 5755 5754 5754 5753 5753 5752 5751 5751 5751 5751 5751 5751 5751 5753 5755 5757 5759 5761 5763 5765 5767 5768 5770 5771 5772 5773 5773 5774 5774 5774 5774 5775 5775 5775 5776 5777 5778 5779
5759 5757 5754 5752 5751 5749 5748 5748 5747 5746 5745 5745 5744 5744 5745 5745 5745 5745 5747 5749 5751 5752 5754 5756 5759 5761 5763 5764 5765 5766 5767 5767 5767 5767 5766 5766 5766 5766 5766 5766 5767 5768 5769